Akron, CO

10:45 AM MST on February 26, 2017 (GMT -0700)
Akron-Washington County

Weather History for KAKO - January, 2014

Change the Weather History Date:

Tuesday, January 21, 2014

  Actual Average Record
Temperature  
Mean Temperature 40 °F 29 °F  
Max Temperature 60 °F 40 °F 67 °F (1950)
Min Temperature 19 °F 17 °F -14 °F (1966)
Degree Days  
Heating Degree Days 25    
Month to date heating degree days 719  
Cooling Degree Days 0    
Month to date cooling degree days 0  
Moisture  
Dew Point 8 °F    
Average Humidity 37    
Maximum Humidity 68    
Minimum Humidity 5    
Precipitation  
Precipitation 0.00 in 0.01 in 0.12 in (1988)
Month to date precipitation 0.09 0.18  
Year to date precipitation 0.09 0.18  
Sea Level Pressure  
Sea Level Pressure 30.20 in    
Wind  
Wind Speed 14 mph (WNW)    
Max Wind Speed 33 mph    
Max Gust Speed 39 mph    
Visibility 10 miles    
Events      
T = Trace of Precipitation, MM = Missing Value Source: NWS Daily Summary

Daily Weather History Graph

Daily Weather History Graph

Search for Another Location

Airport or City:

Trip Planner

Search our weather history database for the weather conditions in past years. The results will help you decide how hot, cold, wet, or windy it might be!

Date:

Astronomy

Jan. 21, 2014 Rise Set
Actual Time 7:10 AM MST 4:58 PM MST
Civil Twilight 6:40 AM MST 5:28 PM MST
Nautical Twilight 6:07 AM MST 6:01 PM MST
Astronomical Twilight 5:35 AM MST 6:33 PM MST
Moon 10:34 PM MST (1/21) 9:40 AM MST (1/21)
Length of Visible Light 10h 47m
Length of Day
9h 48m
Waning Gibbous, 74% of the Moon is Illuminated
Jan 21
Waning Gibbous
Jan 23
Last Quarter
Jan 30
New
Feb 6
First Quarter
Feb 14
Full

Hourly Weather History & Observations

Time (MST) Temp. Windchill Dew Point Humidity Pressure Visibility Wind Dir Wind Speed Gust Speed Precip Events Conditions
12:53 AM 23.0 °F 11.7 °F 12.9 °F 65% 30.36 in 10.0 mi SW 11.5 mph - N/A   Clear
1:53 AM 23.0 °F 11.1 °F 12.9 °F 65% 30.36 in 10.0 mi SW 12.7 mph - N/A   Clear
2:53 AM 24.1 °F 13.7 °F 12.9 °F 62% 30.32 in 10.0 mi SW 10.4 mph - N/A   Clear
3:53 AM 21.0 °F 10.6 °F 12.0 °F 68% 30.30 in 10.0 mi SSW 9.2 mph - N/A   Clear
4:53 AM 24.1 °F 14.4 °F 12.9 °F 62% 30.28 in 10.0 mi South 9.2 mph - N/A   Clear
5:53 AM 21.9 °F 11.0 °F 12.9 °F 68% 30.28 in 10.0 mi SW 10.4 mph - N/A   Clear
6:53 AM 24.1 °F 11.5 °F 15.1 °F 69% 30.26 in 10.0 mi West 15.0 mph - N/A   Clear
7:53 AM 25.0 °F 12.2 °F 15.1 °F 66% 30.24 in 10.0 mi West 16.1 mph - N/A   Clear
8:53 AM 30.0 °F 19.5 °F 15.1 °F 54% 30.25 in 10.0 mi West 13.8 mph - N/A   Clear
9:53 AM 37.0 °F 28.5 °F 14.0 °F 39% 30.21 in 10.0 mi West 13.8 mph - N/A   Clear
10:53 AM 45.0 °F 37.6 °F 12.9 °F 27% 30.20 in 10.0 mi WNW 17.3 mph - N/A   Clear
11:53 AM 55.0 °F - 3.9 °F 13% 30.11 in 10.0 mi NW 17.3 mph 28.8 mph N/A   Clear
12:53 PM 59.0 °F - -13.0 °F 5% 30.07 in 10.0 mi NNW 35.7 mph 39.1 mph N/A   Clear
1:53 PM 57.9 °F - -11.0 °F 6% 30.06 in 10.0 mi North 28.8 mph 36.8 mph N/A   Clear
2:53 PM 55.9 °F - -7.1 °F 7% 30.08 in 10.0 mi North 31.1 mph 35.7 mph N/A   Clear
3:53 PM 53.1 °F - -2.9 °F 10% 30.10 in 10.0 mi North 19.6 mph - N/A   Clear
4:53 PM 45.0 °F 40.1 °F -0.0 °F 15% 30.14 in 10.0 mi North 9.2 mph - N/A   Clear
5:53 PM 45.0 °F 38.2 °F 3.0 °F 18% 30.16 in 10.0 mi NNW 15.0 mph - N/A   Clear
6:53 PM 37.9 °F - 5.0 °F 25% 30.19 in 10.0 mi Calm Calm - N/A   Clear
7:53 PM 37.0 °F 29.8 °F 8.1 °F 30% 30.19 in 10.0 mi NNW 10.4 mph - N/A   Clear
8:53 PM 37.0 °F 28.9 °F 10.9 °F 34% 30.17 in 10.0 mi North 12.7 mph - N/A   Clear
9:53 PM 32.0 °F 24.2 °F 12.0 °F 44% 30.16 in 10.0 mi NNE 9.2 mph - N/A   Clear
10:53 PM 30.0 °F 25.2 °F 12.0 °F 47% 30.16 in 10.0 mi West 4.6 mph - N/A   Clear
11:53 PM 27.0 °F 17.3 °F 12.0 °F 53% 30.13 in 10.0 mi WSW 10.4 mph - N/A   Clear